www.pogodaiklimat.ru

Погода и климат >> Архив погоды >> Иран >> Bandarabbass


ПОГОДА в Bandarabbass

  • Прогноз погоды в Bandarabbass
  • Монитор погоды в Bandarabbass
  • Климат города

АРХИВ ПОГОДЫ в Bandarabbass

Время (UTC), дата Ветер
(напр.,м/с)
 
Видим.   Явления Облачность Т
(С)
Тd
(С)
f
(%)
Тe
(С)
Тes
(С)
Комфортность P
(гПа)
Po
(гПа)
Тmin
(С)
Tmax
(С)
R
(мм)
R24
(мм)
S
(см)
00 17.06 СВ 2 5000 м мгла ясно +27.5 +23.6 79 +37 +37 очень
душно
997.8 996.8
03 17.06 СВ 2 8000 м мгла ясно +29.4 +25.0 77 +42 +45 опасность
перегрева
998.5 997.4 +27.5
06 17.06 Ю 5 7000 м мгла ясно +33.8 +25.3 61 +48 +57 опасность
перегрева
999.1 998.0
09 17.06 Ю 7 6000 м мгла ясно +35.5 +25.1 55 +49 +55 опасность
перегрева
998.1 997.1
12 17.06 Ю 6 6000 м мгла ясно +35.5 +25.4 56 +50 +53 опасность
перегрева
996.6 995.6
15 17.06 Ю 5 6000 м мгла ясно +32.3 +27.6 76 +52 +52 опасность
перегрева
996.0 994.9 +37.5
18 17.06 Ю 5 6000 м дымка ясно +30.7 +27.3 82 +49 +49 опасность
перегрева
997.7 996.6
21 17.06 ЮЗ 2 6000 м дымка ясно +30.0 +26.1 80 +45 +45 опасность
перегрева
998.2 997.1
00 18.06 ЮЗ 2 6000 м дымка 1/1 900 м
[Sc diur, vesp]
+29.5 +26.2 82 +45 +45 опасность
перегрева
997.8 996.7
03 18.06 СВ 2 5000 м дымка 4/4 900 м
[Sc diur, vesp]
+28.5 +25.3 83 +42 +43 опасность
перегрева
999.0 997.9 +27.7
06 18.06 Ю 4 5000 м мгла ясно +34.0 +27.4 69 +53 +64 опасность
перегрева
999.4 998.4
09 18.06 Ю 6 5000 м мгла ясно +35.2 +25.7 58 +50 +59 опасность
перегрева
998.3 997.3
12 18.06 Ю 8 6000 м пыльный позёмок 1/1 600 м
[Cu hum]
+37.4 +21.0 39 +44 +46 опасность
перегрева
996.7 995.7
15 18.06 Ю 5 8000 м мгла ясно +34.8 +24.6 56 +48 +48 опасность
перегрева
996.9 995.9 +37.7
18 18.06 Ю 4 7000 м мгла ясно +31.4 +26.3 74 +47 +47 опасность
перегрева
998.2 997.1
21 18.06 С 2 6000 м мгла ясно +27.5 +22.7 75 +36 +36 очень
душно
998.0 997.0
00 19.06 С 3 6000 м мгла ясно +27.0 +23.1 79 +36 +36 очень
душно
998.4 997.3
03 19.06 С 2 5000 м мгла 1/0
[Cc]
+29.6 +24.0 72 +41 +44 опасность
перегрева
999.8 998.7 +26.4
06 19.06 ЮВ 2 6000 м мгла 1/0
[Ac trans]
+36.4 +26.0 55 +52 +67 опасность
перегрева
1000.5 999.4
09 19.06 Ю 4 6000 м мгла ясно +37.2 +26.3 54 +53 +68 опасность
перегрева
999.8 998.7
12 19.06 Ю 5 7000 м мгла ясно +38.0 +21.7 39 +46 +50 опасность
перегрева
998.5 997.4
15 19.06 Ю 4 7000 м мгла ясно +33.8 +24.5 58 +46 +46 опасность
перегрева
997.8 996.8 +39.4
18 19.06 Ю 2 7000 м мгла ясно +31.8 +24.3 65 +44 +44 опасность
перегрева
998.9 997.9
21 19.06 С 3 7000 м мгла 1/0
[Ac trans]
+28.3 +22.9 73 +38 +38 очень
душно
998.9 997.8
00 20.06 С 3 5000 м мгла 4/0
[Ac trans]
+28.9 +25.0 80 +42 +42 опасность
перегрева
998.7 997.6
03 20.06 штиль 0 5000 м мгла 3/0
[Ac trans]
+30.7 +26.6 79 +47 +50 опасность
перегрева
999.8 998.8 +27.9
06 20.06 Ю 2 5000 м мгла ясно +35.8 +26.8 60 +53 +70 опасность
перегрева
1001.0 1000.0
09 20.06 Ю 5 5000 м мгла ясно +37.6 +22.8 43 +47 +58 опасность
перегрева
1000.2 999.1
12 20.06 Ю 7 5000 м пыльный позёмок ясно +38.3 +17.7 30 +41 +44 опасность
перегрева
998.6 997.5
15 20.06 Ю 6 5000 м мгла ясно +33.4 +25.3 63 +48 +48 опасность
перегрева
998.6 997.5 +38.7
18 20.06 С 2 5000 м мгла ясно +31.2 +24.4 67 +43 +43 опасность
перегрева
999.4 998.3
21 20.06 С 2 5000 м мгла ясно +28.9 +23.4 72 +39 +39 очень
душно
999.2 998.2
00 21.06 СЗ 2 4000 м мгла 1/0
[Ac trans]
+28.4 +23.4 74 +38 +38 очень
душно
998.8 997.7
03 21.06 Ю 2 4000 м мгла 5/0
[Ac trans]
+30.6 +23.6 66 +41 +43 опасность
перегрева
1000.0 998.9 +28.1
06 21.06 ЮВ 2 4000 м мгла 3/0
[Ac trans]
+39.4 +24.4 43 +42 +55 опасность
перегрева
1000.4 999.3
09 21.06 Ю 7 3500 м мгла ясно +38.4 +25.3 48 +52 +58 опасность
перегрева
999.3 998.2
12 21.06 ЮЗ 6 4000 м мгла 3/0
[Ac trans]
+38.5 +25.9 49 +53 +56 опасность
перегрева
997.2 996.2
15 21.06 ЮЗ 5 2200 м мгла ясно +37.2 +23.5 46 +48 +48 опасность
перегрева
997.6 996.5 +40.3
18 21.06 СВ 2 2500 м мгла 1/0
[Ac trans]
+33.8 +21.7 49 +42 +42 опасность
перегрева
998.4 997.3
21 21.06 С 2 3000 м мгла ясно +32.0 +25.0 67 +46 +46 опасность
перегрева
998.2 997.2
00 22.06 штиль 0 3000 м мгла ясно +29.4 +24.0 73 +41 +41 опасность
перегрева
998.0 997.0
03 22.06 З 2 3000 м мгла ясно +31.8 +26.1 72 +48 +50 опасность
перегрева
998.9 997.9 +28.3
06 22.06 Ю 4 4000 м мгла 1/0
[Ci fib]
+36.3 +26.6 58 +53 +64 опасность
перегрева
999.0 998.0
09 22.06 Ю 7 4000 м мгла ясно +37.2 +25.0 50 +51 +57 опасность
перегрева
998.0 996.9
12 22.06 ЮЗ 6 4000 м мгла ясно +38.4 +24.2 45 +50 +54 опасность
перегрева
996.8 995.7
15 22.06 З 5 4000 м мгла ясно +38.3 +24.6 46 +41 +41 опасность
перегрева
996.0 995.0 +39.7
18 22.06 ЮЗ 3 4000 м мгла ясно +34.2 +25.9 62 +50 +50 опасность
перегрева
997.1 996.0
21 22.06 ЮЗ 4 3000 м дымка ясно +31.0 +27.9 84 +51 +51 опасность
перегрева
997.5 996.5
00 23.06 ЮЗ 3 3000 м дымка 6/6 900 м
[Sc]
+30.7 +27.6 84 +50 +50 опасность
перегрева
997.5 996.5
03 23.06 С 2 3000 м дымка ясно +30.6 +27.7 85 +50 +53 опасность
перегрева
998.7 997.6 +29.9
06 23.06 Ю 4 4000 м мгла ясно +34.8 +28.1 68 +56 +67 опасность
перегрева
999.4 998.4
09 23.06 Ю 6 4000 м мгла ясно +36.4 +28.4 64 +58 +67 опасность
перегрева
998.2 997.2
12 23.06 ЮЗ 6 4000 м мгла ясно +38.4 +25.0 47 +52 +55 опасность
перегрева
996.8 995.8
15 23.06 З 3 5000 м мгла ясно +37.2 +22.8 44 +47 +47 опасность
перегрева
996.4 995.4 +38.9
18 23.06 ЮЗ 3 5000 м мгла ясно +32.3 +27.8 77 +52 +52 опасность
перегрева
997.6 996.6

 

Местоположение метеостанции Bandarabbass (Иран): широта 27.22 долгота 56.37 высота над уровнем моря 10 м.

В архиве по умолчанию представлена погода в Bandarabbass за последнюю неделю. Архивные данные за месяц целиком и за предыдущие месяцы, начиная с января 2011 года, Вы можете получить, выбрав интересующий диапазон дат из раскрывающегося списка и нажав кнопку "Ввод!".


*Определитесь, кто Вы:
робот инопланетянин человек

Внимание! Время в таблицах - всемирное. Для получения местного времени необходимо прибавить поправку, которая в Bandarabbass равна 3.5 ч.

Смотрите также архив погоды в соседних городах и на ближайших метеорологических станциях:

Погода в Khasab (Оман) (113 км)
Погода в Khasab Airport (Оман) (118 км)
Погода в Kahnuj (Иран) (155 км)
Погода в Bandar Lengeh (Иран) (169 км)
Погода в Diba (Оман) (178 км)
Погода в Ras Al Khaimah Int Airport (ОАЭ) (183 км)
Погода в Abu Musa Island (Иран) (218 км)
Погода в Baft (Иран) (224 км)
Погода в Jask (Иран) (225 км)
Погода в Sharjah (ОАЭ) (227 км)

Пояснения к столбцам:

Ветер - указаны скорость ветра в м/с - средняя за 10 мин, порывы в срок и между сроками (в фигурных скобках) и направление, откуда дует ветер: С - северный, СВ - северо-восточный, В - восточный, ЮВ - юго-восточный, Ю - южный, ЮЗ - юго-западный, З - западный, СЗ - северо-западный.
Видимость - горизонтальная дальность видимости в метрах или километрах. При видимости от 1 до 10 км при отсутствии осадков обычно наблюдается дымка, при ухудшении видимости до 1 км и менее - туман. В сухую погоду видимость может ухудшаться дымом, пылью или мглою.
Явления - указаны атмосферные явления, наблюдавшиеся в срок или в последний час перед сроком; фигурными скобками обозначены явления, наблюдавшиеся между сроками (за 1-3 часа до срока); квадратными скобками обозначены град или гололедные отложения с указанием их диаметра в мм.
Облачность - указаны через наклонную черту общая и нижняя облачность в баллах и высота нижней границы облаков в метрах; квадратными скобками обозначены формы облаков: Ci - перистые, Cs - перисто-слоистые, Cc - перисто-кучевые, Ac - высококучевые, As - высокослоистые, Sc - слоисто-кучевые, Ns - слоисто-дождевые, Cu - кучевые, Cb - кучево-дождевые. Подробнее классификацию облаков см. в Атласе облаков (PDF).
T - Температура воздуха - температура, измеренная на высоте 2 м над землей.
Td - Температура точки росы - температура, при понижении до которой содержащийся в воздухе водяной пар достигнет насыщения.
f - Относительная влажность воздуха - влажноcть воздуха, измеренная на высоте 2 м над землей.
Te - Эффективная температура - температура, которую ощущает одетый по сезону человек в тени. Характеристика душности погоды. При расчете учитывается влияние влажности воздуха и скорости ветра на теплоощущения человека.
Tes - Эффективная температура на солнце - температура, которую ощущает человек, с поправкой на солнечный нагрев. Характеристика знойности погоды. Зависит от высоты солнца над горизонтом, облачности и скорости ветра. Ночью, в пасмурную погоду, а также при ветре 12 м/с и более поправка равна нулю.
P - Атмосферное давление - приведенное к уровню моря атмосферное давление.
Po - Атмосферное давление - измеренное на уровне метеостанции атмосферное давление.
Tmin - Минимальная температура - минимум температуры воздуха на высоте 2 м над землей.
Tmax - Максимальная температура - максимум температуры воздуха на высоте 2 м над землей.
R - Количество осадков - Количество выпавших осадков за период времени, мм. При наведении курсора мыши на число - период времени, за который выпало указанное количество осадков.
R24 - Количество осадков - Количество выпавших осадков за 24 часа, мм.
S - Снежный покров - Высота снежного покрова, см. При наведении курсора мыши на число - состояние снежного покрова и степень покрытия местности в баллах.